User: anonymous   Login
Location: Doschendorf
(50.0069°N, 11.0602°E)
Time: 16:38:57
(UTC+00:00)
Language:

NOAA 12 - Orbit

View from above orbital plane
View from above orbital plane
View from above satellite
View from above satellite

Ground track
Ground track

The orbit data is extracted from the following two-line orbital elements,

1 21263U 91032A   20024.55279362 -.00000005 +00000-0 +15904-4 0  9995
2 21263 098.5101 038.6952 0014073 024.1068 336.0768 14.25907150492045
Epoch (UTC): 24 January 2020 13:16:01
Eccentricity: 0.0014073
inclination: 98.5101°
perigee height: 795 km
apogee height: 815 km
right ascension of ascending node: 38.6952°
argument of perigee: 24.1068°
revolutions per day: 14.25907150
mean anomaly at epoch: 336.0768°
orbit number at epoch: 49204

The dashed part of the orbit path shows where the satellite is in the earth's shadow,  

DLR